| time (UTC) | temp C | wind direction | speed KPH | gust KPH | rain 1hr cm | rain 24hr cm | rain mn cm | humidity % | barometer mb |
| 20260502130103 | 13 | 180 | 1.6 | 6.4 | 0.00 | 0.00 | 0.00 | 94 | 1013.0 |
| 20260502123103 | 13 | 180 | 1.6 | 4.8 | 0.00 | 0.00 | 0.00 | 94 | 1013.1 |
| 20260502120123 | 13 | 180 | 1.6 | 4.8 | 0.00 | 0.00 | 0.00 | 94 | 1012.9 |
| 20260502113122 | 13 | 180 | 3.2 | 6.4 | 0.00 | 0.00 | 0.00 | 94 | 1012.9 |
| 20260502110103 | 13 | 180 | 1.6 | 4.8 | 0.00 | 0.00 | 0.00 | 93 | 1013.0 |
| 20260502103121 | 13 | 180 | 1.6 | 4.8 | 0.00 | 0.00 | 0.00 | 93 | 1012.8 |
| 20260502063101 | 13 | 0.0 | 0.0 | 0.00 | 0.00 | 0.00 | 92 | 1013.2 | |
| 20260502053101 | 13 | 0.0 | 0.0 | 0.00 | 0.00 | 0.00 | 91 | 1013.2 | |
| 20260502050101 | 13 | 0.0 | 3.2 | 0.00 | 0.00 | 0.00 | 90 | 1013.3 | |
| 20260502043102 | 13 | 248 | 3.2 | 6.4 | 0.00 | 0.00 | 0.00 | 90 | 1012.9 |
| 20260502033101 | 14 | 270 | 6.4 | 12.9 | 0.00 | 0.00 | 0.00 | 88 | 1012.6 |
| 20260502030121 | 15 | 248 | 8.0 | 19.3 | 0.00 | 0.00 | 0.00 | 86 | 1012.3 |
| 20260502023121 | 16 | 248 | 9.7 | 17.7 | 0.00 | 0.00 | 0.00 | 82 | 1011.9 |
| 20260502020100 | 17 | 248 | 11.3 | 22.5 | 0.00 | 0.00 | 0.00 | 78 | 1011.8 |
| 20260502013100 | 18 | 248 | 11.3 | 20.9 | 0.00 | 0.00 | 0.00 | 74 | 1011.6 |
| 20260502010101 | 19 | 248 | 14.5 | 25.7 | 0.00 | 0.00 | 0.00 | 72 | 1011.4 |
| 20260502003101 | 21 | 248 | 12.9 | 22.5 | 0.00 | 0.00 | 0.00 | 68 | 1011.3 |
| 20260502000100 | 21 | 248 | 12.9 | 24.1 | 0.00 | 0.00 | 0.00 | 66 | 1011.4 |
| 20260501233100 | 22 | 248 | 11.3 | 22.5 | 0.00 | 0.00 | 0.00 | 64 | 1011.3 |
| 20260501230100 | 22 | 248 | 12.9 | 24.1 | 0.00 | 0.00 | 0.00 | 64 | 1011.4 |
| 20260501223100 | 22 | 248 | 12.9 | 25.7 | 0.00 | 0.00 | 0.00 | 61 | 1011.8 |
| 20260501220100 | 22 | 248 | 11.3 | 27.4 | 0.00 | 0.00 | 0.00 | 61 | 1012.0 |
| 20260501213100 | 22 | 270 | 12.9 | 25.7 | 0.00 | 0.00 | 0.00 | 60 | 1012.3 |
| 20260501210100 | 23 | 293 | 11.3 | 22.5 | 0.00 | 0.00 | 0.00 | 59 | 1012.4 |
| 20260501203059 | 22 | 293 | 12.9 | 24.1 | 0.00 | 0.00 | 0.00 | 60 | 1012.4 |
| 20260501200100 | 22 | 338 | 9.7 | 17.7 | 0.00 | 0.00 | 0.00 | 62 | 1012.7 |
| 20260501193059 | 21 | 293 | 9.7 | 20.9 | 0.00 | 0.00 | 0.00 | 65 | 1012.8 |
| 20260501190101 | 20 | 338 | 12.9 | 25.7 | 0.00 | 0.00 | 0.00 | 69 | 1013.2 |
| 20260501183059 | 18 | 293 | 9.7 | 20.9 | 0.00 | 0.00 | 0.00 | 72 | 1013.4 |
| 20260501180119 | 17 | 338 | 9.7 | 17.7 | 0.00 | 0.00 | 0.00 | 76 | 1013.6 |
| 20260501173059 | 16 | 293 | 8.0 | 19.3 | 0.00 | 0.00 | 0.00 | 78 | 1013.8 |
| 20260501170059 | 16 | 338 | 4.8 | 12.9 | 0.00 | 0.00 | 0.00 | 81 | 1014.0 |
| 20260501163059 | 15 | 270 | 4.8 | 12.9 | 0.00 | 0.00 | 0.00 | 87 | 1014.0 |
| 20260501160059 | 13 | 135 | 1.6 | 6.4 | 0.00 | 0.00 | 0.00 | 89 | 1014.0 |
| 20260501153059 | 13 | 135 | 1.6 | 9.7 | 0.00 | 0.00 | 0.00 | 91 | 1013.9 |
| 20260501150059 | 12 | 158 | 1.6 | 9.7 | 0.00 | 0.00 | 0.00 | 92 | 1013.8 |
| 20260501143059 | 12 | 113 | 3.2 | 11.3 | 0.00 | 0.00 | 0.00 | 93 | 1013.6 |
| 20260501140121 | 12 | 90 | 3.2 | 9.7 | 0.00 | 0.00 | 0.00 | 93 | 1013.5 |
| 20260501133201 | 12 | 158 | 3.2 | 8.0 | 0.00 | 0.00 | 0.00 | 93 | 1013.4 |